TimeMST,TemperatureF,Dew PointF,Humidity,Sea Level PressureIn,VisibilityMPH,Wind Direction,Wind SpeedMPH,Gust SpeedMPH,PrecipitationIn,Events,Conditions,WindDirDegrees,DateUTC
12:53 AM,37.9,23.0,55,29.91,10.0,Calm,Calm,-,N/A,,Clear,0,2012-12-05 07:53:00
1:53 AM,44.1,24.1,45,29.84,10.0,West,4.6,-,N/A,,Clear,260,2012-12-05 08:53:00
2:53 AM,37.9,25.0,60,29.86,10.0,SW,4.6,-,N/A,,Clear,230,2012-12-05 09:53:00
3:53 AM,43.0,25.0,49,29.83,10.0,Calm,Calm,-,N/A,,Clear,0,2012-12-05 10:53:00
4:53 AM,43.0,27.0,53,29.82,10.0,WSW,9.2,-,N/A,,Clear,240,2012-12-05 11:53:00
5:53 AM,41.0,27.0,57,29.83,10.0,SSW,8.1,-,N/A,,Clear,200,2012-12-05 12:53:00
7:53 AM,44.1,26.1,49,29.81,10.0,NNW,5.8,-,N/A,,Clear,340,2012-12-05 14:53:00
8:53 AM,45.0,27.0,49,29.80,10.0,Calm,Calm,-,N/A,,Clear,0,2012-12-05 15:53:00
9:53 AM,50.0,28.0,43,29.78,10.0,Calm,Calm,-,N/A,,Clear,0,2012-12-05 16:53:00
10:53 AM,55.0,28.9,37,29.75,10.0,West,6.9,-,N/A,,Clear,270,2012-12-05 17:53:00
12:53 PM,57.9,30.0,35,29.69,10.0,Calm,Calm,-,N/A,,Clear,0,2012-12-05 19:53:00
1:53 PM,59.0,27.0,29,29.64,10.0,Calm,Calm,-,N/A,,Overcast,0,2012-12-05 20:53:00
2:53 PM,55.9,33.1,42,29.68,10.0,SW,3.5,-,N/A,,Mostly Cloudy,220,2012-12-05 21:53:00
3:53 PM,52.0,30.0,43,29.70,10.0,ENE,3.5,-,N/A,,Clear,70,2012-12-05 22:53:00
4:53 PM,46.0,30.0,54,29.73,10.0,West,5.8,-,N/A,,Clear,260,2012-12-05 23:53:00
5:53 PM,44.1,30.0,58,29.78,10.0,West,8.1,-,N/A,,Clear,280,2012-12-06 00:53:00
6:53 PM,46.9,28.0,48,29.79,10.0,NNW,5.8,-,N/A,,Clear,330,2012-12-06 01:53:00
7:53 PM,46.0,30.0,54,29.84,10.0,NW,24.2,33.4,N/A,,Scattered Clouds,320,2012-12-06 02:53:00
8:53 PM,44.1,30.0,58,29.86,10.0,NW,23.0,39.1,N/A,,Clear,320,2012-12-06 03:53:00
9:53 PM,43.0,28.0,56,29.88,10.0,NW,19.6,28.8,N/A,,Clear,320,2012-12-06 04:53:00
10:53 PM,39.9,28.9,65,29.92,10.0,North,15.0,24.2,N/A,,Overcast,350,2012-12-06 05:53:00
11:53 PM,37.9,23.0,55,29.95,10.0,NNW,15.0,24.2,N/A,,Overcast,330,2012-12-06 06:53:00